When you browse on this site, cookies collect data to enhance your experience and personalize the content and advertising you see.
Visit our Privacy Policy to learn more. By continuing to use the site, you agree to this use of cookies and data.
  • In United Kingdom
  • List of Countries
  • For 7 days
  • Water Temperature
  • Weather Map
  • Weather Widgets
  • user-avatar
    Login

    Hourly Weather Haymana

    Today, 20 November, Wednesday

    Time Temperature Precipitation Wind Pressure Humidity
    00:00 +5°C° 0 mm 0 mps 665 mmHg 45%
    01:00 +5°C° 0 mm 0 mps 665 mmHg 46%
    02:00 +4°C° 0 mm 0 mps 665 mmHg 46%
    03:00 +4°C° 0 mm 0 mps 665 mmHg 45%
    04:00 +4°C° 0 mm 0 mps 664 mmHg 45%
    05:00 +3°C° 0 mm 0 mps 664 mmHg 45%
    06:00 +4°C° 0 mm 0 mps 665 mmHg 44%
    07:00 +5°C° 0 mm 0 mps 665 mmHg 42%
    08:00 +7°C° 0 mm 1 mps 665 mmHg 41%
    09:00 +9°C° 0 mm 1 mps 666 mmHg 36%
    10:00 +11°C° 0 mm 1 mps 666 mmHg 30%
    11:00 +13°C° 0 mm 1 mps 666 mmHg 25%
    12:00 +13°C° 0 mm 1 mps 666 mmHg 25%
    13:00 +14°C° 0 mm 1 mps 666 mmHg 24%
    14:00 +14°C° 0 mm 1 mps 665 mmHg 24%
    15:00 +12°C° 0 mm 1 mps 665 mmHg 30%
    16:00 +10°C° 0 mm 0 mps 664 mmHg 36%
    17:00 +8°C° 0 mm 0 mps 664 mmHg 42%
    18:00 +7°C° 0 mm 0 mps 664 mmHg 43%
    19:00 +7°C° 0 mm 0 mps 664 mmHg 45%
    20:00 +6°C° 0 mm 0 mps 664 mmHg 46%
    21:00 +6°C° 0 mm 0 mps 663 mmHg 47%
    22:00 +5°C° 0 mm 0 mps 663 mmHg 48%
    23:00 +5°C° 0 mm 0 mps 663 mmHg 49%

    Tomorrow, 21 November, Thursday

    Time Temperature Precipitation Wind Pressure Humidity
    00:00 +5°C° 0 mm 0 mps 663 mmHg 50%
    01:00 +4°C° 0 mm 0 mps 663 mmHg 51%
    02:00 +4°C° 0 mm 0 mps 663 mmHg 52%
    03:00 +4°C° 0 mm 0 mps 663 mmHg 53%
    04:00 +3°C° 0 mm 0 mps 662 mmHg 54%
    05:00 +3°C° 0 mm 0 mps 662 mmHg 54%
    06:00 +4°C° 0 mm 0 mps 662 mmHg 52%
    07:00 +5°C° 0 mm 0 mps 663 mmHg 50%
    08:00 +6°C° 0 mm 0 mps 663 mmHg 48%
    09:00 +8°C° 0 mm 0 mps 664 mmHg 42%
    10:00 +9°C° 0 mm 0 mps 664 mmHg 35%
    11:00 +11°C° 0 mm 0 mps 664 mmHg 28%
    12:00 +12°C° 0 mm 0 mps 664 mmHg 26%
    13:00 +13°C° 0 mm 1 mps 664 mmHg 25%
    14:00 +14°C° 0 mm 1 mps 663 mmHg 23%
    15:00 +11°C° 0 mm 0 mps 663 mmHg 28%
    16:00 +10°C° 0 mm 0 mps 662 mmHg 33%
    17:00 +8°C° 0 mm 0 mps 662 mmHg 39%
    18:00 +8°C° 0 mm 0 mps 662 mmHg 39%
    19:00 +7°C° 0 mm 0 mps 662 mmHg 40%
    20:00 +7°C° 0 mm 0 mps 662 mmHg 40%
    21:00 +6°C° 0 mm 0 mps 662 mmHg 41%
    22:00 +6°C° 0 mm 0 mps 662 mmHg 41%
    23:00 +6°C° 0 mm 0 mps 662 mmHg 41%

    Day after tomorrow, 22 November, Friday

    Time Temperature Precipitation Wind Pressure Humidity
    00:00 +5°C° 0 mm 0 mps 661 mmHg 41%
    01:00 +5°C° 0 mm 0 mps 661 mmHg 41%
    02:00 +5°C° 0 mm 0 mps 661 mmHg 41%
    03:00 +6°C° 0 mm 1 mps 661 mmHg 41%
    04:00 +6°C° 0 mm 1 mps 661 mmHg 41%
    05:00 +6°C° 0 mm 1 mps 661 mmHg 41%
    06:00 +6°C° 0 mm 1 mps 661 mmHg 41%
    07:00 +7°C° 0 mm 1 mps 661 mmHg 41%
    08:00 +8°C° 0 mm 1 mps 662 mmHg 40%
    09:00 +9°C° 0 mm 1 mps 662 mmHg 36%
    10:00 +11°C° 0 mm 1 mps 662 mmHg 32%
    11:00 +13°C° 0 mm 1 mps 663 mmHg 27%
    12:00 +13°C° 0 mm 1 mps 662 mmHg 27%
    13:00 +14°C° 0 mm 1 mps 662 mmHg 27%
    14:00 +14°C° 0 mm 1 mps 662 mmHg 27%
    15:00 +13°C° 0 mm 1 mps 662 mmHg 31%
    16:00 +12°C° 0 mm 1 mps 661 mmHg 35%
    17:00 +10°C° 0 mm 1 mps 661 mmHg 40%
    18:00 +10°C° 0 mm 1 mps 661 mmHg 41%
    19:00 +8°C° 0 mm 0 mps 661 mmHg 41%
    20:00 +8°C° 0 mm 0 mps 661 mmHg 42%
    21:00 +8°C° 0 mm 0 mps 661 mmHg 42%
    22:00 +7°C° 0 mm 0 mps 661 mmHg 43%
    23:00 +7°C° 0 mm 0 mps 662 mmHg 43%

    23 November, Saturday

    Time Temperature Precipitation Wind Pressure Humidity
    00:00 +7°C° 0 mm 0 mps 662 mmHg 43%
    01:00 +6°C° 0 mm 0 mps 661 mmHg 44%
    02:00 +6°C° 0 mm 0 mps 661 mmHg 44%
    03:00 +6°C° 0 mm 0 mps 661 mmHg 44%
    04:00 +6°C° 0 mm 0 mps 661 mmHg 44%
    05:00 +6°C° 0 mm 0 mps 661 mmHg 44%
    06:00 +6°C° 0 mm 0 mps 662 mmHg 44%
    07:00 +7°C° 0 mm 0 mps 662 mmHg 43%
    08:00 +7°C° 0 mm 0 mps 663 mmHg 43%
    09:00 +10°C° 0 mm 1 mps 663 mmHg 38%
    10:00 +11°C° 0 mm 1 mps 663 mmHg 34%
    11:00 +13°C° 0 mm 1 mps 664 mmHg 29%
    12:00 +13°C° 0 mm 1 mps 663 mmHg 28%
    13:00 +14°C° 0 mm 1 mps 663 mmHg 27%
    14:00 +14°C° 0 mm 1 mps 663 mmHg 26%
    15:00 +13°C° 0 mm 1 mps 663 mmHg 29%
    16:00 +12°C° 0 mm 1 mps 662 mmHg 33%
    17:00 +10°C° 0 mm 0 mps 662 mmHg 37%
    18:00 +9°C° 0 mm 0 mps 662 mmHg 37%
    19:00 +9°C° 0 mm 0 mps 662 mmHg 38%
    20:00 +8°C° 0 mm 0 mps 662 mmHg 38%
    21:00 +9°C° 0 mm 1 mps 662 mmHg 39%
    22:00 +9°C° 0 mm 1 mps 662 mmHg 39%
    23:00 +9°C° 0 mm 1 mps 662 mmHg 40%

    24 November, Sunday

    Time Temperature Precipitation Wind Pressure Humidity
    00:00 +9°C° 0 mm 1 mps 662 mmHg 43%
    01:00 +9°C° 0 mm 1 mps 662 mmHg 46%
    02:00 +9°C° 0 mm 1 mps 662 mmHg 48%
    03:00 +9°C° 0 mm 1 mps 662 mmHg 53%
    04:00 +9°C° 0 mm 1 mps 662 mmHg 58%
    05:00 +8°C° 0 mm 2 mps 662 mmHg 63%
    06:00 +8°C° 0 mm 2 mps 662 mmHg 67%
    07:00 +8°C° 0 mm 2 mps 663 mmHg 70%
    08:00 +8°C° 0 mm 2 mps 663 mmHg 74%
    09:00 +9°C° 0 mm 2 mps 663 mmHg 68%
    10:00 +10°C° 0 mm 2 mps 663 mmHg 62%
    11:00 +13°C° 0 mm 2 mps 664 mmHg 56%
    12:00 +13°C° 0 mm 2 mps 663 mmHg 55%
    13:00 +13°C° 0 mm 2 mps 663 mmHg 53%
    14:00 +14°C° 0 mm 1 mps 663 mmHg 51%
    15:00 +13°C° 0 mm 1 mps 662 mmHg 56%
    16:00 +12°C° 0 mm 1 mps 662 mmHg 61%
    17:00 +10°C° 0 mm 0 mps 662 mmHg 65%
    18:00 +10°C° 0 mm 1 mps 662 mmHg 67%
    19:00 +10°C° 0 mm 1 mps 662 mmHg 68%
    20:00 +9°C° 0 mm 1 mps 662 mmHg 69%
    21:00 +9°C° 0 mm 1 mps 661 mmHg 71%
    22:00 +9°C° 0 mm 1 mps 661 mmHg 72%
    23:00 +7°C° 0 mm 2 mps 661 mmHg 74%

    25 November, Monday

    Time Temperature Precipitation Wind Pressure Humidity
    00:00 +7°C° 0 mm 2 mps 661 mmHg 75%
    01:00 +7°C° 0 mm 2 mps 661 mmHg 77%
    02:00 +7°C° 0 mm 2 mps 661 mmHg 78%
    03:00 +7°C° 0 mm 2 mps 661 mmHg 77%
    04:00 +6°C° 0 mm 2 mps 660 mmHg 77%
    05:00 +6°C° 0 mm 2 mps 660 mmHg 77%
    06:00 +7°C° 0 mm 2 mps 660 mmHg 74%
    07:00 +7°C° 0 mm 2 mps 661 mmHg 71%
    08:00 +7°C° 0 mm 2 mps 661 mmHg 68%
    09:00 +9°C° 0 mm 3 mps 661 mmHg 59%
    10:00 +10°C° 0 mm 4 mps 661 mmHg 51%
    11:00 +10°C° 0 mm 5 mps 661 mmHg 43%
    12:00 +12°C° 0 mm 5 mps 661 mmHg 42%
    13:00 +12°C° 0 mm 5 mps 660 mmHg 41%
    14:00 +12°C° 0 mm 5 mps 660 mmHg 40%
    15:00 +10°C° 0 mm 5 mps 659 mmHg 43%
    16:00 +11°C° 0 mm 4 mps 659 mmHg 45%
    17:00 +10°C° 0 mm 4 mps 659 mmHg 47%
    18:00 +10°C° 0 mm 4 mps 658 mmHg 47%
    19:00 +10°C° 0 mm 3 mps 658 mmHg 46%
    20:00 +10°C° 0 mm 3 mps 658 mmHg 46%
    21:00 +8°C° 0 mm 4 mps 658 mmHg 44%
    22:00 +8°C° 0 mm 4 mps 658 mmHg 43%
    23:00 +8°C° 0 mm 4 mps 658 mmHg 42%
    Show more